[[{"header":{"parameterUnit":"m.s-1","parameterCategory":1,"la1":30.2991,"la2":30.254,"lo1":-89.0895,"lo2":-89.0444,"dy":0.0017,"dx":0.0017,"nx":28,"ny":28,"refTime":"2025-04-10T09:00:00:Z","depth":0,"parameterNumber":2,"parameterNumberName":"U-component_of_WINDS"},"data":[0,0,0,0,0,0,0,0,0,0,0,0,0,0,0,0,0,0,0,0,0,0,0,0,0,0,0,0,0,0,0,0,0,0,0,0,0,0,0,0,0,0,0,0,0,0,0,0,0,0,0,0,0,0,0,0,0,0,3.0233,3.0234,0,3.0307,3.0308,3.0308,3.0264,3.0262,3.0259,3.0257,3.034,3.0344,3.0348,0,0,0,0,0,0,0,0,0,0,0,0,0,3.0062,3.0065,3.0233,3.0234,3.0235,3.0307,3.0308,3.0309,3.0264,3.0262,3.0259,3.0256,3.0339,3.0344,3.0349,0,0,0,0,0,0,0,0,0,0,0,0,0,3.0136,3.0066,3.0233,3.0221,3.0221,3.0306,3.0308,3.0309,3.0265,3.0261,3.0258,3.0255,3.0337,3.0343,3.035,3.0453,0,0,3.0369,3.0372,0,0,0,0,0,0,0,0,3.0132,3.0143,3.0222,3.0222,3.0222,3.0273,3.0278,3.0358,3.0266,3.0248,3.0257,3.0254,3.0321,3.0328,3.0349,3.0457,3.046,3.0369,3.0373,3.0376,3.0378,0,0,0,0,0,0,0,3.0127,3.0139,3.0262,3.0223,3.0223,3.0215,3.0222,3.0293,3.0302,3.025,3.0246,3.0255,3.032,3.0343,3.0351,3.0462,3.0369,3.0375,3.0379,3.0381,3.0661,3.0665,0,0,0,0,0,0,3.0122,3.0135,3.026,3.0265,3.0168,3.0221,3.0228,3.026,3.0301,3.0304,3.0258,3.0253,3.0334,3.0344,3.0354,3.0479,3.0376,3.0382,3.0385,3.0658,3.0662,3.0666,0,0,0,0,0,0,3.0118,3.0133,3.0257,3.0199,3.0214,3.0227,3.0263,3.0263,3.0286,3.0307,3.031,3.0279,3.0332,3.0345,3.0429,3.0482,3.0385,3.039,3.0653,3.0659,3.0664,3.073,0,0,0,0,0,0,3.0113,3.0132,3.0169,3.02,3.0217,3.0328,3.0266,3.0267,3.0296,3.029,3.0328,3.0331,3.0331,3.042,3.0435,3.0489,3.0395,3.0649,3.0656,3.0662,3.0724,3.0738,3.0749,0,0,0,0,0,3.0107,3.0186,3.0171,3.0187,3.0264,3.0331,3.0342,3.0337,3.03,3.034,3.0354,3.033,3.0473,3.0429,3.0446,3.0502,3.0645,3.0654,3.0662,3.0718,3.0735,3.0749,0,0,0,0,0,0,3.0163,3.019,3.0174,3.0264,3.0296,3.0324,3.0373,3.0355,3.0399,3.0392,3.0387,3.0396,3.0484,3.0501,3.0451,3.0606,3.0554,3.0566,3.0591,3.0607,3.062,3.0614,3.0401,0,0,0,0,0,3.0186,3.0236,3.0257,3.0336,3.0352,3.036,3.0389,3.0383,3.0416,3.043,3.045,3.0486,3.0539,3.0574,3.0624,3.0726,3.0735,3.0773,3.0786,3.0797,3.0808,3.0865,3.0883,3.0693,3.0693,3.0693,0,0,3.0233,3.0254,3.0286,3.0347,3.0371,3.0426,3.0371,3.0431,3.0473,3.044,3.052,3.0536,3.0576,3.067,3.0713,3.0687,3.0862,3.0807,3.0815,3.0821,3.0876,3.0894,3.091,3.0698,3.0697,3.0697,0,0,3.0348,3.0368,3.0436,3.0461,3.0497,3.0502,3.0518,3.055,3.0559,3.0639,3.0616,3.0667,3.0757,3.0787,3.0814,3.0943,3.0924,3.0959,3.1027,3.1084,3.1099,3.1112,3.116,3.1177,3.097,3.097,3.097,0,3.0404,3.0483,3.0474,3.0536,3.0565,3.0536,3.0607,3.0632,3.0683,3.0705,3.0676,3.079,3.0815,3.0916,3.0948,3.097,3.0991,3.0955,3.1097,3.111,3.1122,3.1168,3.1186,3.0974,3.0974,3.0973,3.0973,0,3.055,3.0606,3.0657,3.0706,3.074,3.0807,3.0811,3.0847,3.0839,3.0848,3.0932,3.096,3.1016,3.104,3.1033,3.1142,3.1125,3.1096,3.1045,3.1145,3.1188,3.1205,3.098,3.0979,3.0978,3.0977,0,0,3.0701,3.0745,3.0764,3.0787,3.0826,3.087,3.0937,3.0989,3.1022,3.1059,3.1117,3.1195,3.1169,3.12,3.1196,3.1246,3.1348,3.1211,3.1212,3.1237,3.1473,3.1495,3.1515,3.1336,3.1339,3.1342,3.147,0,3.082,3.0933,3.0928,3.1035,3.1088,3.1063,3.1121,3.1153,3.1164,3.1213,3.1226,3.1282,3.1243,3.1261,3.1309,3.1326,3.1396,3.1316,3.1392,3.1394,3.1383,3.1537,3.156,3.168,3.1487,3.1489,3.1491,0,3.0973,3.1014,3.1126,3.1158,3.118,3.1232,3.1282,3.1328,3.1365,3.1369,3.1404,3.1393,3.1464,3.141,3.1508,3.1454,3.1485,3.1498,3.1503,3.1511,3.1449,3.155,3.1718,3.1736,3.1517,3.1515,3.1514,0,3.1074,3.1157,3.1235,3.1256,3.1295,3.1333,3.1352,3.1385,3.1418,3.1462,3.1484,3.1536,3.1566,3.1608,3.1612,3.1572,3.1713,3.1658,3.1721,3.1721,3.1752,3.175,3.1928,3.1771,3.177,3.177,3.177,0,3.1207,3.1277,3.1281,3.133,3.1409,3.1404,3.1483,3.1498,3.1529,3.1582,3.1564,3.1614,3.1616,3.1669,3.1674,3.1756,3.1769,3.1777,3.1778,3.1779,3.1778,3.18,3.1792,3.1775,3.1774,3.1773,3.1772,0,3.1333,3.1339,3.1422,3.1453,3.1463,3.152,3.1547,3.1595,3.1604,3.1672,3.1688,3.1704,3.1765,3.1774,3.1846,3.1849,3.1949,3.194,3.1936,3.1935,3.1997,3.1992,3.2196,3.2223,3.2047,3.2049,3.205,0,3.1418,3.1471,3.1508,3.1541,3.1561,3.1615,3.1648,3.1647,3.1683,3.173,3.1773,3.1832,3.1879,3.1979,3.1999,3.2055,3.2048,3.2116,3.2057,3.2057,3.2051,3.2048,3.2054,3.2128,3.213,3.2131,3.2133,0,3.1569,3.1569,3.1617,3.1666,3.1706,3.1746,3.1783,3.1812,3.1816,3.1858,3.1919,3.1956,3.203,3.209,3.2145,3.2168,3.2152,3.2151,3.2169,3.2171,3.2167,3.2171,3.1968,3.2147,3.2145,3.2144,3.2143,3.2143,3.1678,3.1724,3.1758,3.1812,3.184,3.1875,3.1922,3.1937,3.1988,3.2046,3.2043,3.2112,3.215,3.2223,3.2249,3.2305,3.2283,3.2308,3.2315,3.2321,3.2328,3.2158,3.2315,3.2315,3.2314,3.2314,3.2314,0,3.1829,3.1849,3.1899,3.1951,3.1995,3.1974,3.2015,3.2054,3.2113,3.2149,3.2196,3.2268,3.2327,3.2352,3.241,3.245,3.2445,3.2465,3.2463,3.2469,3.2344,3.2323,3.2469,3.2469,3.2469,3.2469,3.2469,3.2469,3.1912,3.1991,3.1996,3.2089,3.211,3.2175,3.22,3.2234,3.2263,3.2344,3.2392,3.2407,3.2439,3.25,3.2554,3.256,3.2583,3.2607,3.261,3.2493,3.2477,3.2462,3.2443,3.2612,3.2612,3.2731,3.2732,3.2733]},{"header":{"parameterUnit":"m.s-1","parameterCategory":1,"la1":30.2991,"la2":30.254,"lo1":-89.0895,"lo2":-89.0444,"dy":0.0017,"dx":0.0017,"nx":28,"ny":28,"refTime":"2025-04-10T09:00:00:Z","depth":0,"parameterNumber":3,"parameterNumberName":"V-component_of_WINDS"},"data":[0,0,0,0,0,0,0,0,0,0,0,0,0,0,0,0,0,0,0,0,0,0,0,0,0,0,0,0,0,0,0,0,0,0,0,0,0,0,0,0,0,0,0,0,0,0,0,0,0,0,0,0,0,0,0,0,0,0,2.5787,2.5789,0,2.5962,2.5964,2.5966,2.5999,2.5998,2.5996,2.5995,2.617,2.6176,2.6182,0,0,0,0,0,0,0,0,0,0,0,0,0,2.5473,2.5479,2.5787,2.5789,2.5791,2.5961,2.5964,2.5966,2.5999,2.5998,2.5996,2.5994,2.6168,2.6175,2.6182,0,0,0,0,0,0,0,0,0,0,0,0,0,2.5625,2.548,2.5786,2.5828,2.5834,2.5961,2.5964,2.5967,2.6,2.5998,2.5996,2.5994,2.6166,2.6174,2.6183,2.628,0,0,2.621,2.6214,0,0,0,0,0,0,0,0,2.5616,2.5636,2.582,2.5826,2.5832,2.5957,2.5917,2.6072,2.6,2.5937,2.5995,2.5993,2.61,2.6114,2.6152,2.6288,2.6295,2.6211,2.6217,2.622,2.6223,0,0,0,0,0,0,0,2.5605,2.5629,2.5856,2.5822,2.583,2.5836,2.5855,2.5947,2.6028,2.5942,2.5945,2.5965,2.6103,2.6143,2.6156,2.6298,2.6211,2.6219,2.6224,2.6228,2.6515,2.6517,0,0,0,0,0,0,2.5588,2.562,2.585,2.5861,2.5717,2.5843,2.5864,2.5919,2.6027,2.6042,2.5967,2.5966,2.6129,2.6146,2.6162,2.6279,2.622,2.6229,2.6234,2.6513,2.6515,2.6518,0,0,0,0,0,0,2.5581,2.5609,2.5843,2.5741,2.5772,2.5851,2.5911,2.5923,2.5963,2.6046,2.606,2.5993,2.6128,2.615,2.6249,2.6285,2.6233,2.6241,2.651,2.6514,2.6517,2.6514,0,0,0,0,0,0,2.5572,2.5606,2.5646,2.5742,2.5777,2.593,2.5913,2.5928,2.5979,2.598,2.6074,2.6088,2.6128,2.6236,2.6258,2.6296,2.6248,2.6507,2.6512,2.6516,2.6511,2.6517,2.6522,0,0,0,0,0,2.5561,2.5638,2.5648,2.5675,2.5829,2.5932,2.5951,2.5997,2.5982,2.6021,2.6073,2.6085,2.6278,2.6245,2.6271,2.6313,2.6505,2.651,2.6515,2.6509,2.6516,2.6521,0,0,0,0,0,0,2.5544,2.5652,2.5664,2.5775,2.5844,2.5937,2.5988,2.6004,2.6078,2.6076,2.6128,2.6148,2.6244,2.6288,2.6251,2.6408,2.639,2.64,2.6376,2.6383,2.6389,2.6375,2.6255,0,0,0,0,0,2.5554,2.563,2.572,2.5809,2.5843,2.5909,2.5956,2.5985,2.6058,2.6087,2.6147,2.6215,2.6291,2.634,2.6414,2.6517,2.6536,2.6558,2.6563,2.6567,2.6575,2.6628,2.6637,2.6535,2.6535,2.6535,0,0,2.5574,2.5642,2.5687,2.5807,2.5864,2.5939,2.5934,2.6015,2.607,2.6099,2.6196,2.6241,2.6321,2.6421,2.6468,2.6461,2.6607,2.6574,2.6576,2.6582,2.6634,2.6643,2.6652,2.6538,2.6538,2.6537,0,0,2.5648,2.5709,2.5788,2.5844,2.593,2.5973,2.5991,2.6082,2.6113,2.6211,2.6233,2.6298,2.6428,2.6483,2.6527,2.6616,2.6628,2.6638,2.6666,2.6716,2.6724,2.6731,2.6759,2.6769,2.6646,2.6646,2.6646,0,2.5661,2.5778,2.5826,2.5905,2.5955,2.5984,2.6062,2.6114,2.6219,2.6251,2.6242,2.6403,2.6459,2.6569,2.659,2.6627,2.6646,2.6628,2.672,2.6727,2.6735,2.6762,2.6773,2.6647,2.6647,2.6647,2.6647,0,2.5788,2.5868,2.5921,2.6021,2.6077,2.6155,2.6212,2.6262,2.6284,2.6327,2.6423,2.649,2.6577,2.6605,2.6629,2.6718,2.671,2.671,2.6692,2.6744,2.677,2.6781,2.6647,2.6647,2.6647,2.6647,0,0,2.586,2.5982,2.6001,2.6044,2.6139,2.62,2.6277,2.6362,2.6402,2.6472,2.6535,2.6642,2.6641,2.6691,2.672,2.6765,2.6825,2.6758,2.6761,2.6765,2.6922,2.692,2.6932,2.6833,2.6836,2.6838,2.6914,0,2.5943,2.6083,2.6126,2.6242,2.6313,2.634,2.6406,2.6469,2.6509,2.6573,2.6617,2.6691,2.6685,2.6715,2.676,2.6808,2.6856,2.6803,2.6889,2.6892,2.6867,2.6946,2.6946,2.7015,2.6925,2.6927,2.6928,0,2.606,2.6131,2.6254,2.6335,2.6367,2.6426,2.6504,2.6567,2.6636,2.6662,2.6716,2.674,2.6817,2.6794,2.6898,2.6861,2.6898,2.6926,2.6929,2.6938,2.6912,2.6954,2.7039,2.7048,2.6945,2.6944,2.6943,0,2.6095,2.6222,2.6311,2.6348,2.6445,2.6485,2.6527,2.6595,2.6642,2.6709,2.6739,2.6814,2.6855,2.691,2.6952,2.6933,2.7051,2.7033,2.7071,2.707,2.7095,2.7092,2.7184,2.7122,2.7121,2.7121,2.7121,0,2.6183,2.6256,2.6327,2.6382,2.6463,2.6509,2.6588,2.663,2.669,2.675,2.6777,2.6832,2.6886,2.6947,2.698,2.7058,2.7077,2.7097,2.7104,2.7094,2.7091,2.7118,2.7113,2.7124,2.7123,2.7123,2.7122,0,2.6236,2.6287,2.6385,2.6468,2.649,2.6546,2.6616,2.6667,2.6707,2.6783,2.6803,2.6865,2.6938,2.6985,2.7079,2.71,2.7185,2.7192,2.7162,2.7165,2.7199,2.7194,2.731,2.7326,2.7255,2.7255,2.7256,0,2.6288,2.6345,2.6433,2.6476,2.6518,2.6587,2.6634,2.668,2.6727,2.6808,2.6848,2.6923,2.6986,2.71,2.7151,2.7221,2.7229,2.7264,2.724,2.7225,2.7226,2.7221,2.7225,2.7268,2.7269,2.7269,2.727,0,2.6373,2.6394,2.6462,2.6537,2.6592,2.6653,2.6714,2.6747,2.6803,2.6853,2.6929,2.6977,2.707,2.7143,2.7216,2.7256,2.7271,2.7277,2.7289,2.7278,2.7256,2.7265,2.717,2.7274,2.7274,2.7273,2.7273,2.7273,2.6425,2.6475,2.6544,2.6617,2.6667,2.6722,2.6773,2.6819,2.6883,2.6963,2.6986,2.7063,2.7126,2.7226,2.7267,2.7325,2.7321,2.7339,2.7343,2.7347,2.7345,2.7248,2.7339,2.7339,2.7339,2.7339,2.7339,0,2.6509,2.6554,2.662,2.6704,2.676,2.677,2.6836,2.6881,2.6949,2.7008,2.7068,2.7151,2.722,2.7275,2.7345,2.7381,2.7389,2.7397,2.7394,2.7402,2.7347,2.7328,2.7389,2.7389,2.7389,2.7389,2.7389,2.7389,2.6559,2.6643,2.6671,2.6778,2.6821,2.6898,2.6935,2.6984,2.703,2.7122,2.718,2.7216,2.7271,2.7345,2.7407,2.7421,2.7444,2.7451,2.7466,2.7413,2.7407,2.7401,2.7384,2.7456,2.7456,2.7516,2.7516,2.7517]}]]